QPF
0.05 0.02 0.04 0.04 0.05 0.05 0.05 0.08 0.09 0.08 0.07 0.06 0.06 0.05 0.04 0.03 0.03 0.04 0.03 0.02 0.01 0.01 0.02 0.02 0.02 0.03 0.03 0.03 0.03 0.04 0.05 0.08 0.09 0.08 0.07 0.06 0.06 0.05 0.05 0.05 0.05 0.06 0.10
0.06 0.03 0.04 0.03 0.03 0.05 0.04 0.05 0.08 0.10 0.07 0.06 0.08 0.06 0.04 0.02 0.03 0.04 0.03 0.02 0.01 0.01 0.01 0.01 0.02 0.02 0.02 0.02 0.03 0.04 0.03 0.04 0.05 0.07 0.07 0.07 0.07 0.07 0.06 0.07 0.06 0.04 0.06
0.05 0.05 0.04 0.04 0.03 0.04 0.04 0.05 0.06 0.06 0.05 0.05 0.08 0.06 0.04 0.04 0.05 0.05 0.03 0.01 0.01 0.01 0.01 0.01 0.02 0.02 0.02 0.02 0.03 0.04 0.04 0.03 0.03 0.05 0.05 0.04 0.04 0.07 0.07 0.08 0.08 0.05 0.05
0.02 0.04 0.04 0.05 0.03 0.02 0.02 0.03 0.04 0.06 0.03 0.02 0.05 0.06 0.05 0.05 0.04 0.03 0.02 0.01 0.01 0.02 0.01 0.02 0.02 0.02 0.02 0.02 0.02 0.03 0.05 0.05 0.03 0.02 0.01 0.02 0.04 0.07 0.07 0.07 0.08 0.07 0.09
0.01 0.03 0.04 0.03 0.02 0.01 0.01 0.01 0.02 0.03 0.02 0.01 0.02 0.04 0.03 0.05 0.04 0.03 0.02 0.02 0.03 0.03 0.02 0.03 0.02 0.01 0.02 0.02 0.03 0.02 0.02 0.04 0.03 0.01 0.01 0.02 0.04 0.06 0.04 0.04 0.06 0.08 0.08
0.01 0.01 0.03 0.01 0.01 0.02 0.02 0.01 0.01 0.01 0.01 0.01 0.02 0.03 0.02 0.02 0.02 0.02 0.02 0.03 0.03 0.02 0.02 0.02 0.02 0.01 0.01 0.02 0.03 0.02 0.02 0.03 0.02 0.01 0.01 0.02 0.03 0.05 0.05 0.04 0.05 0.06 0.07
0.01 0.01 0.02 0.02 0.01 0.02 0.02 0.02 0.02 0.02 0.02 0.03 0.03 0.03 0.01 0.01 0.02 0.03 0.03 0.03 0.03 0.03 0.02 0.02 0.02 0.02 0.01 0.02 0.03 0.03 0.03 0.02 0.01 0.01 0.01 0.02 0.04 0.06 0.05 0.03 0.03 0.05 0.05
0.01 0.01 0.02 0.02 0.02 0.02 0.02 0.02 0.02 0.03 0.03 0.02 0.02 0.02 0.02 0.03 0.03 0.03 0.02 0.02 0.02 0.02 0.02 0.03 0.02 0.02 0.01 0.01 0.03 0.04 0.03 0.01 0.00 0.00 0.01 0.01 0.05 0.07 0.05 0.04 0.03 0.03 0.03
0.01 0.01 0.02 0.02 0.01 0.01 0.02 0.01 0.01 0.01 0.02 0.03 0.02 0.02 0.03 0.03 0.03 0.02 0.02 0.03 0.03 0.02 0.03 0.04 0.03 0.02 0.01 0.02 0.03 0.04 0.03 0.01 0.00 0.01 0.01 0.01 0.05 0.06 0.06 0.03 0.03 0.02 0.03
0.01 0.01 0.01 0.02 0.02 0.02 0.02 0.02 0.02 0.01 0.01 0.02 0.02 0.03 0.03 0.03 0.02 0.02 0.03 0.04 0.03 0.02 0.03 0.04 0.03 0.02 0.03 0.03 0.03 0.03 0.02 0.01 0.01 0.01 0.01 0.03 0.05 0.07 0.05 0.03 0.03 0.03 0.04
0.01 0.01 0.01 0.01 0.01 0.02 0.02 0.02 0.02 0.02 0.03 0.02 0.01 0.02 0.02 0.02 0.02 0.03 0.04 0.06 0.05 0.03 0.03 0.02 0.03 0.04 0.04 0.03 0.03 0.02 0.01 0.01 0.01 0.01 0.04 0.09 0.07 0.06 0.05 0.04 0.05 0.04 0.05
0.00 0.01 0.01 0.01 0.01 0.01 0.01 0.01 0.01 0.02 0.02 0.02 0.02 0.01 0.01 0.02 0.02 0.03 0.04 0.04 0.04 0.03 0.02 0.02 0.04 0.04 0.03 0.01 0.02 0.02 0.02 0.01 0.01 0.02 0.06 0.09 0.06 0.05 0.05 0.04 0.04 0.03 0.04
0.00 0.00 0.00 0.00 0.01 0.01 0.01 0.01 0.01 0.01 0.02 0.03 0.03 0.02 0.02 0.02 0.02 0.01 0.01 0.02 0.01 0.01 0.01 0.02 0.03 0.04 0.04 0.03 0.03 0.03 0.03 0.03 0.03 0.02 0.04 0.06 0.06 0.06 0.06 0.05 0.04 0.04 0.05
0.00 0.00 0.00 0.00 0.01 0.01 0.01 0.01 0.01 0.01 0.01 0.02 0.02 0.03 0.02 0.02 0.02 0.03 0.02 0.01 0.01 0.01 0.01 0.02 0.03 0.06 0.06 0.04 0.04 0.05 0.04 0.03 0.02 0.01 0.03 0.06 0.08 0.09 0.08 0.06 0.06 0.06 0.07
0.00 0.00 0.00 0.00 0.00 0.01 0.01 0.01 0.01 0.01 0.02 0.02 0.02 0.03 0.02 0.02 0.02 0.03 0.03 0.02 0.02 0.01 0.01 0.03 0.04 0.06 0.07 0.06 0.05 0.04 0.03 0.03 0.02 0.01 0.03 0.05 0.07 0.08 0.09 0.09 0.09 0.09 0.09
0.01 0.01 0.01 0.00 0.00 0.01 0.01 0.01 0.01 0.01 0.01 0.02 0.02 0.03 0.03 0.03 0.02 0.02 0.03 0.03 0.03 0.02 0.02 0.02 0.04 0.06 0.06 0.06 0.06 0.04 0.03 0.03 0.03 0.02 0.02 0.03 0.05 0.07 0.09 0.11 0.14 0.12 0.08
0.01 0.01 0.01 0.01 0.01 0.01 0.02 0.01 0.01 0.01 0.01 0.01 0.01 0.02 0.03 0.03 0.02 0.02 0.02 0.02 0.03 0.03 0.03 0.03 0.03 0.04 0.04 0.04 0.05 0.04 0.03 0.02 0.02 0.02 0.02 0.02 0.03 0.06 0.08 0.09 0.11 0.11 0.08
0.01 0.01 0.01 0.00 0.01 0.01 0.02 0.01 0.01 0.01 0.01 0.01 0.01 0.01 0.02 0.03 0.03 0.03 0.02 0.02 0.02 0.02 0.02 0.02 0.02 0.02 0.03 0.03 0.02 0.02 0.02 0.02 0.02 0.01 0.01 0.01 0.02 0.03 0.05 0.05 0.07 0.11 0.09
0.01 0.01 0.01 0.01 0.01 0.01 0.02 0.02 0.01 0.01 0.01 0.01 0.01 0.01 0.02 0.04 0.03 0.03 0.02 0.02 0.02 0.01 0.01 0.01 0.01 0.02 0.03 0.02 0.01 0.01 0.02 0.03 0.02 0.01 0.01 0.01 0.02 0.02 0.03 0.04 0.06 0.08 0.09
0.01 0.02 0.01 0.01 0.01 0.01 0.01 0.01 0.02 0.01 0.01 0.01 0.02 0.02 0.02 0.03 0.03 0.04 0.03 0.02 0.02 0.02 0.02 0.01 0.01 0.01 0.02 0.03 0.02 0.01 0.01 0.02 0.03 0.02 0.02 0.02 0.01 0.02 0.03 0.05 0.03 0.04 0.07
0.02 0.01 0.02 0.02 0.01 0.01 0.01 0.01 0.01 0.02 0.01 0.01 0.02 0.02 0.02 0.03 0.04 0.05 0.04 0.02 0.03 0.02 0.02 0.02 0.02 0.02 0.01 0.02 0.03 0.03 0.02 0.03 0.03 0.02 0.02 0.02 0.02 0.03 0.04 0.03 0.02 0.03 0.05
0.02 0.02 0.02 0.02 0.02 0.02 0.02 0.02 0.01 0.02 0.01 0.01 0.02 0.04 0.03 0.02 0.03 0.03 0.03 0.04 0.04 0.02 0.03 0.03 0.02 0.01 0.01 0.02 0.02 0.02 0.03 0.05 0.04 0.04 0.03 0.03 0.04 0.04 0.02 0.02 0.03 0.03 0.03
0.01 0.02 0.03 0.02 0.02 0.02 0.01 0.02 0.02 0.01 0.01 0.02 0.02 0.03 0.02 0.01 0.02 0.04 0.04 0.05 0.05 0.04 0.04 0.04 0.03 0.03 0.02 0.03 0.03 0.02 0.02 0.02 0.01 0.02 0.04 0.05 0.04 0.04 0.03 0.03 0.03 0.03 0.03
0.03 0.03 0.03 0.02 0.03 0.03 0.02 0.01 0.02 0.01 0.01 0.02 0.01 0.01 0.02 0.02 0.03 0.05 0.04 0.03 0.03 0.04 0.05 0.03 0.04 0.05 0.04 0.04 0.03 0.03 0.03 0.04 0.02 0.02 0.03 0.04 0.05 0.06 0.05 0.04 0.03 0.03 0.03
0.03 0.03 0.02 0.03 0.05 0.04 0.03 0.02 0.02 0.01 0.01 0.02 0.02 0.02 0.03 0.03 0.05 0.06 0.04 0.02 0.01 0.02 0.02 0.03 0.04 0.04 0.04 0.05 0.04 0.03 0.04 0.06 0.05 0.03 0.02 0.03 0.04 0.05 0.06 0.05 0.03 0.04 0.03
0.03 0.02 0.02 0.03 0.04 0.05 0.04 0.03 0.03 0.02 0.02 0.02 0.02 0.03 0.04 0.03 0.03 0.04 0.03 0.02 0.01 0.01 0.02 0.03 0.02 0.02 0.02 0.03 0.03 0.03 0.03 0.04 0.06 0.06 0.03 0.02 0.02 0.02 0.02 0.03 0.03 0.04 0.04
MSLP
1013.74 1013.20 1012.77 1012.50 1012.39 1012.41 1012.47 1012.52 1012.48 1012.33 1012.08 1011.78 1011.50 1011.29 1011.17 1011.15 1011.21 1011.30 1011.37 1011.40 1011.38 1011.33 1011.28 1011.27 1011.32 1011.43 1011.60 1011.80 1011.98 1012.14 1012.24 1012.30 1012.34 1012.38 1012.43 1012.50 1012.59 1012.69 1012.77 1012.83 1012.88 1012.92 1012.99
1013.32 1012.84 1012.48 1012.28 1012.23 1012.29 1012.39 1012.46 1012.43 1012.29 1012.06 1011.79 1011.55 1011.38 1011.30 1011.31 1011.39 1011.48 1011.54 1011.54 1011.50 1011.42 1011.35 1011.33 1011.36 1011.47 1011.62 1011.80 1011.96 1012.09 1012.17 1012.23 1012.27 1012.32 1012.40 1012.51 1012.63 1012.75 1012.84 1012.90 1012.94 1012.98 1013.05
1012.75 1012.34 1012.06 1011.94 1011.97 1012.09 1012.23 1012.33 1012.33 1012.22 1012.02 1011.79 1011.58 1011.45 1011.40 1011.42 1011.50 1011.57 1011.60 1011.58 1011.51 1011.41 1011.33 1011.30 1011.33 1011.43 1011.58 1011.74 1011.88 1011.99 1012.06 1012.12 1012.18 1012.27 1012.39 1012.54 1012.70 1012.85 1012.96 1013.03 1013.06 1013.08 1013.14
1012.09 1011.76 1011.56 1011.53 1011.64 1011.83 1012.03 1012.17 1012.20 1012.12 1011.96 1011.76 1011.59 1011.47 1011.43 1011.46 1011.50 1011.54 1011.54 1011.48 1011.38 1011.28 1011.20 1011.17 1011.22 1011.33 1011.48 1011.64 1011.78 1011.88 1011.96 1012.03 1012.12 1012.25 1012.42 1012.63 1012.83 1013.01 1013.14 1013.20 1013.22 1013.23 1013.26
1011.40 1011.15 1011.04 1011.11 1011.30 1011.56 1011.82 1011.99 1012.06 1012.01 1011.87 1011.70 1011.55 1011.44 1011.40 1011.40 1011.41 1011.41 1011.36 1011.27 1011.15 1011.04 1010.97 1010.97 1011.05 1011.18 1011.36 1011.53 1011.68 1011.80 1011.89 1011.99 1012.12 1012.29 1012.52 1012.76 1013.01 1013.21 1013.35 1013.41 1013.41 1013.40 1013.41
1010.74 1010.57 1010.56 1010.72 1010.99 1011.32 1011.61 1011.82 1011.91 1011.88 1011.76 1011.60 1011.46 1011.36 1011.30 1011.27 1011.25 1011.20 1011.11 1010.99 1010.85 1010.74 1010.70 1010.73 1010.85 1011.02 1011.23 1011.43 1011.61 1011.75 1011.88 1012.01 1012.17 1012.38 1012.64 1012.92 1013.19 1013.41 1013.55 1013.61 1013.60 1013.56 1013.55
1010.17 1010.09 1010.17 1010.41 1010.75 1011.12 1011.44 1011.66 1011.75 1011.72 1011.61 1011.47 1011.34 1011.24 1011.17 1011.13 1011.07 1010.98 1010.85 1010.70 1010.56 1010.46 1010.43 1010.50 1010.65 1010.88 1011.12 1011.37 1011.58 1011.75 1011.90 1012.05 1012.24 1012.47 1012.75 1013.04 1013.32 1013.54 1013.68 1013.74 1013.72 1013.68 1013.67
1009.74 1009.73 1009.89 1010.20 1010.58 1010.97 1011.29 1011.50 1011.58 1011.55 1011.45 1011.32 1011.20 1011.11 1011.05 1011.00 1010.92 1010.81 1010.66 1010.48 1010.33 1010.23 1010.22 1010.31 1010.51 1010.77 1011.06 1011.34 1011.58 1011.78 1011.95 1012.11 1012.30 1012.52 1012.79 1013.07 1013.33 1013.55 1013.69 1013.75 1013.75 1013.73 1013.74
1009.45 1009.51 1009.74 1010.09 1010.49 1010.88 1011.18 1011.36 1011.41 1011.37 1011.27 1011.15 1011.06 1011.00 1010.97 1010.92 1010.85 1010.73 1010.56 1010.38 1010.21 1010.11 1010.11 1010.22 1010.44 1010.73 1011.06 1011.37 1011.63 1011.84 1012.01 1012.16 1012.31 1012.50 1012.72 1012.96 1013.19 1013.39 1013.53 1013.62 1013.66 1013.69 1013.75
1009.29 1009.42 1009.69 1010.07 1010.47 1010.82 1011.08 1011.22 1011.24 1011.18 1011.09 1011.00 1010.95 1010.94 1010.94 1010.94 1010.89 1010.77 1010.60 1010.41 1010.23 1010.12 1010.12 1010.24 1010.47 1010.78 1011.12 1011.45 1011.72 1011.93 1012.07 1012.18 1012.28 1012.40 1012.55 1012.72 1012.90 1013.08 1013.23 1013.35 1013.46 1013.57 1013.71
1009.24 1009.42 1009.73 1010.11 1010.48 1010.79 1011.00 1011.08 1011.07 1011.00 1010.92 1010.88 1010.88 1010.93 1010.99 1011.03 1011.02 1010.93 1010.77 1010.57 1010.39 1010.27 1010.26 1010.37 1010.60 1010.92 1011.27 1011.60 1011.87 1012.06 1012.17 1012.23 1012.25 1012.27 1012.32 1012.41 1012.53 1012.67 1012.83 1013.00 1013.19 1013.40 1013.66
1009.27 1009.49 1009.82 1010.18 1010.52 1010.77 1010.92 1010.96 1010.92 1010.84 1010.79 1010.79 1010.85 1010.96 1011.09 1011.19 1011.22 1011.17 1011.03 1010.85 1010.66 1010.54 1010.52 1010.63 1010.86 1011.18 1011.53 1011.86 1012.12 1012.29 1012.35 1012.34 1012.26 1012.18 1012.12 1012.11 1012.15 1012.26 1012.43 1012.66 1012.94 1013.27 1013.65
1009.35 1009.60 1009.92 1010.26 1010.54 1010.74 1010.84 1010.84 1010.78 1010.72 1010.69 1010.74 1010.86 1011.04 1011.23 1011.39 1011.48 1011.46 1011.36 1011.20 1011.03 1010.91 1010.90 1011.01 1011.24 1011.56 1011.91 1012.24 1012.49 1012.64 1012.66 1012.57 1012.41 1012.22 1012.05 1011.94 1011.91 1011.98 1012.15 1012.43 1012.79 1013.22 1013.72
1009.44 1009.70 1010.02 1010.31 1010.55 1010.70 1010.76 1010.73 1010.67 1010.63 1010.64 1010.73 1010.91 1011.14 1011.39 1011.60 1011.73 1011.77 1011.71 1011.59 1011.45 1011.36 1011.37 1011.49 1011.72 1012.05 1012.41 1012.75 1013.00 1013.13 1013.12 1012.98 1012.75 1012.47 1012.20 1012.00 1011.90 1011.93 1012.09 1012.40 1012.82 1013.34 1013.92
1009.50 1009.78 1010.07 1010.33 1010.53 1010.64 1010.67 1010.65 1010.60 1010.58 1010.63 1010.76 1010.98 1011.25 1011.53 1011.79 1011.97 1012.06 1012.05 1011.99 1011.90 1011.86 1011.90 1012.04 1012.30 1012.64 1013.02 1013.36 1013.63 1013.76 1013.74 1013.58 1013.31 1012.97 1012.63 1012.35 1012.19 1012.18 1012.33 1012.64 1013.10 1013.66 1014.30
1009.52 1009.79 1010.06 1010.29 1010.46 1010.56 1010.60 1010.59 1010.58 1010.59 1010.67 1010.84 1011.07 1011.36 1011.67 1011.95 1012.17 1012.31 1012.37 1012.37 1012.36 1012.38 1012.46 1012.65 1012.93 1013.29 1013.68 1014.05 1014.34 1014.50 1014.50 1014.35 1014.07 1013.71 1013.33 1013.02 1012.81 1012.76 1012.89 1013.19 1013.65 1014.21 1014.85
1009.48 1009.73 1009.98 1010.19 1010.35 1010.46 1010.53 1010.56 1010.59 1010.66 1010.77 1010.94 1011.18 1011.47 1011.78 1012.07 1012.32 1012.52 1012.65 1012.73 1012.80 1012.89 1013.04 1013.26 1013.57 1013.95 1014.36 1014.75 1015.07 1015.27 1015.32 1015.21 1014.97 1014.63 1014.27 1013.94 1013.72 1013.64 1013.74 1014.01 1014.43 1014.96 1015.55
1009.37 1009.62 1009.85 1010.05 1010.22 1010.36 1010.47 1010.57 1010.66 1010.77 1010.91 1011.09 1011.32 1011.59 1011.88 1012.17 1012.45 1012.69 1012.89 1013.06 1013.22 1013.38 1013.59 1013.85 1014.18 1014.57 1014.99 1015.40 1015.76 1016.00 1016.12 1016.09 1015.92 1015.65 1015.34 1015.05 1014.83 1014.74 1014.81 1015.03 1015.39 1015.86 1016.37
1009.21 1009.45 1009.68 1009.89 1010.08 1010.27 1010.44 1010.61 1010.76 1010.92 1011.09 1011.27 1011.48 1011.72 1011.99 1012.27 1012.57 1012.85 1013.12 1013.37 1013.61 1013.85 1014.10 1014.39 1014.73 1015.12 1015.54 1015.96 1016.34 1016.64 1016.84 1016.90 1016.84 1016.68 1016.45 1016.23 1016.05 1015.96 1016.00 1016.18 1016.47 1016.85 1017.27
1009.04 1009.28 1009.50 1009.72 1009.95 1010.19 1010.44 1010.68 1010.90 1011.11 1011.30 1011.48 1011.66 1011.87 1012.11 1012.38 1012.69 1013.01 1013.35 1013.67 1013.98 1014.28 1014.57 1014.88 1015.21 1015.57 1015.97 1016.38 1016.79 1017.14 1017.43 1017.60 1017.67 1017.63 1017.53 1017.39 1017.27 1017.21 1017.24 1017.37 1017.59 1017.88 1018.20
1008.90 1009.13 1009.36 1009.59 1009.86 1010.15 1010.46 1010.77 1011.06 1011.31 1011.52 1011.70 1011.86 1012.04 1012.25 1012.52 1012.83 1013.20 1013.58 1013.97 1014.34 1014.68 1014.99 1015.29 1015.60 1015.93 1016.29 1016.69 1017.10 1017.51 1017.87 1018.16 1018.36 1018.47 1018.49 1018.47 1018.42 1018.41 1018.44 1018.53 1018.70 1018.90 1019.13
1008.81 1009.04 1009.27 1009.51 1009.81 1010.14 1010.50 1010.87 1011.22 1011.51 1011.74 1011.91 1012.06 1012.22 1012.42 1012.68 1013.01 1013.40 1013.83 1014.27 1014.68 1015.05 1015.37 1015.66 1015.93 1016.21 1016.53 1016.90 1017.31 1017.75 1018.19 1018.58 1018.91 1019.16 1019.32 1019.41 1019.46 1019.50 1019.55 1019.63 1019.75 1019.89 1020.04
1008.82 1009.04 1009.25 1009.49 1009.79 1010.15 1010.55 1010.96 1011.34 1011.67 1011.92 1012.10 1012.25 1012.41 1012.60 1012.86 1013.20 1013.62 1014.09 1014.56 1015.00 1015.39 1015.71 1015.97 1016.19 1016.43 1016.70 1017.04 1017.44 1017.90 1018.40 1018.89 1019.33 1019.71 1020.00 1020.21 1020.36 1020.46 1020.55 1020.63 1020.72 1020.82 1020.93
1008.92 1009.11 1009.29 1009.51 1009.80 1010.16 1010.58 1011.01 1011.42 1011.77 1012.05 1012.25 1012.41 1012.58 1012.78 1013.05 1013.41 1013.85 1014.34 1014.84 1015.29 1015.68 1015.99 1016.22 1016.41 1016.60 1016.83 1017.14 1017.53 1018.00 1018.54 1019.09 1019.64 1020.12 1020.53 1020.86 1021.10 1021.28 1021.42 1021.53 1021.62 1021.70 1021.78
1009.09 1009.24 1009.38 1009.56 1009.82 1010.16 1010.57 1011.01 1011.43 1011.81 1012.11 1012.34 1012.53 1012.72 1012.94 1013.23 1013.61 1014.06 1014.57 1015.07 1015.53 1015.91 1016.21 1016.42 1016.58 1016.74 1016.93 1017.21 1017.59 1018.07 1018.63 1019.23 1019.85 1020.42 1020.93 1021.35 1021.70 1021.96 1022.17 1022.32 1022.44 1022.54 1022.61
1009.31 1009.40 1009.48 1009.61 1009.82 1010.13 1010.51 1010.94 1011.38 1011.77 1012.10 1012.37 1012.60 1012.82 1013.07 1013.38 1013.77 1014.23 1014.74 1015.23 1015.69 1016.06 1016.34 1016.54 1016.69 1016.83 1017.01 1017.27 1017.63 1018.11 1018.68 1019.31 1019.97 1020.60 1021.19 1021.70 1022.14 1022.49 1022.78 1023.01 1023.19 1023.32 1023.41
Thickness
5754 5757 5758 5758 5758 5758 5758 5758 5759 5759 5759 5759 5759 5759 5759 5759 5759 5759 5759 5760 5760 5760 5760 5761 5761 5761 5761 5762 5762 5762 5762 5762 5762 5761 5761 5761 5761 5761 5761 5761 5761 5761 5761
5757 5757 5757 5757 5756 5756 5756 5756 5756 5756 5756 5756 5756 5756 5756 5756 5756 5756 5757 5757 5757 5757 5757 5757 5758 5758 5759 5759 5759 5759 5759 5759 5759 5758 5758 5758 5758 5758 5759 5759 5759 5759 5759
5757 5756 5756 5755 5754 5754 5754 5754 5754 5754 5754 5754 5753 5753 5754 5753 5753 5754 5754 5754 5754 5754 5754 5754 5755 5755 5756 5756 5756 5756 5757 5756 5756 5755 5755 5755 5755 5756 5756 5756 5756 5757 5757
5757 5756 5754 5753 5753 5752 5752 5752 5751 5751 5751 5751 5751 5751 5750 5750 5751 5751 5751 5751 5751 5751 5751 5751 5752 5752 5752 5753 5753 5753 5753 5753 5753 5752 5752 5752 5753 5753 5753 5754 5754 5754 5754
5756 5754 5753 5752 5751 5750 5749 5749 5749 5749 5748 5748 5748 5748 5748 5748 5748 5748 5748 5748 5748 5748 5748 5748 5748 5749 5749 5749 5749 5749 5749 5749 5749 5749 5749 5749 5750 5750 5751 5751 5751 5751 5752
5754 5753 5752 5751 5749 5748 5747 5747 5746 5746 5746 5746 5745 5745 5745 5745 5744 5744 5745 5745 5745 5745 5745 5745 5745 5746 5746 5746 5746 5746 5746 5746 5745 5746 5746 5746 5747 5747 5748 5748 5748 5748 5749
5752 5751 5750 5749 5747 5746 5745 5744 5744 5743 5743 5743 5742 5742 5742 5741 5741 5741 5741 5741 5741 5741 5741 5741 5742 5742 5742 5742 5742 5742 5742 5742 5742 5742 5742 5743 5744 5744 5745 5745 5745 5745 5745
5752 5750 5749 5747 5745 5744 5743 5742 5741 5741 5740 5740 5739 5739 5738 5738 5738 5738 5738 5738 5738 5738 5738 5738 5738 5738 5738 5739 5738 5738 5738 5738 5738 5738 5739 5739 5741 5741 5741 5741 5741 5742 5742
5751 5749 5746 5745 5744 5742 5741 5740 5739 5738 5737 5737 5736 5736 5735 5735 5735 5734 5734 5734 5734 5734 5734 5734 5734 5735 5734 5734 5734 5734 5733 5733 5733 5734 5735 5735 5736 5737 5737 5737 5738 5738 5737
5748 5746 5745 5743 5741 5740 5739 5737 5737 5736 5735 5734 5734 5733 5732 5732 5731 5731 5731 5731 5731 5731 5731 5731 5731 5731 5730 5730 5729 5729 5729 5729 5729 5729 5730 5731 5732 5733 5733 5733 5733 5733 5733
5744 5743 5742 5741 5739 5738 5736 5735 5734 5733 5732 5731 5731 5730 5729 5728 5728 5727 5727 5727 5727 5727 5727 5727 5727 5727 5726 5726 5725 5725 5724 5724 5724 5725 5725 5726 5727 5728 5728 5728 5728 5729 5729
5739 5740 5740 5739 5737 5736 5734 5732 5731 5730 5729 5728 5727 5727 5726 5725 5725 5724 5724 5723 5724 5723 5723 5723 5723 5722 5722 5721 5721 5720 5719 5719 5720 5720 5721 5722 5723 5724 5724 5724 5724 5724 5724
5738 5738 5738 5737 5735 5734 5732 5730 5728 5727 5726 5725 5724 5724 5723 5722 5721 5720 5720 5719 5720 5719 5719 5719 5718 5718 5718 5717 5716 5715 5715 5715 5715 5716 5716 5718 5719 5719 5720 5720 5720 5720 5720
5736 5736 5736 5735 5733 5731 5730 5727 5725 5724 5722 5722 5721 5721 5720 5718 5717 5717 5716 5716 5715 5715 5715 5714 5714 5713 5713 5713 5712 5711 5710 5710 5711 5712 5712 5714 5714 5715 5715 5716 5715 5715 5715
5734 5733 5733 5732 5730 5728 5726 5724 5722 5721 5720 5719 5718 5718 5717 5715 5714 5713 5713 5712 5712 5711 5711 5710 5710 5709 5708 5708 5707 5707 5706 5706 5706 5707 5708 5709 5709 5710 5711 5711 5711 5710 5710
5732 5731 5731 5729 5728 5726 5723 5721 5719 5718 5717 5716 5715 5715 5714 5713 5712 5710 5710 5709 5708 5708 5707 5707 5706 5705 5704 5703 5702 5702 5702 5702 5702 5702 5703 5703 5704 5705 5706 5706 5706 5706 5705
5730 5730 5728 5727 5725 5723 5721 5719 5716 5715 5714 5713 5712 5712 5711 5710 5709 5708 5706 5705 5705 5704 5704 5703 5702 5701 5700 5699 5698 5698 5698 5698 5698 5698 5698 5698 5699 5699 5700 5700 5701 5701 5701
5730 5727 5726 5726 5722 5720 5718 5715 5713 5712 5710 5709 5708 5708 5707 5707 5706 5705 5703 5702 5702 5701 5700 5699 5698 5696 5695 5694 5693 5693 5694 5694 5694 5694 5694 5694 5694 5694 5694 5695 5696 5696 5696
5728 5726 5723 5722 5719 5717 5715 5712 5710 5708 5707 5706 5705 5704 5703 5703 5702 5701 5700 5699 5699 5698 5697 5696 5693 5692 5690 5689 5689 5689 5689 5689 5690 5690 5690 5689 5689 5689 5689 5690 5691 5691 5691
5726 5724 5721 5718 5716 5714 5712 5708 5706 5704 5703 5702 5701 5700 5700 5699 5698 5697 5696 5696 5695 5694 5692 5691 5689 5689 5687 5687 5687 5685 5684 5685 5686 5685 5685 5685 5684 5685 5685 5685 5686 5686 5686
5722 5720 5717 5714 5712 5710 5707 5703 5700 5697 5697 5697 5697 5697 5696 5695 5694 5693 5692 5691 5691 5689 5688 5687 5685 5684 5682 5683 5681 5678 5678 5680 5680 5680 5681 5680 5680 5680 5680 5681 5681 5681 5681
5718 5716 5714 5711 5709 5708 5705 5702 5699 5696 5694 5693 5693 5693 5692 5691 5691 5690 5688 5687 5686 5685 5684 5683 5681 5679 5678 5679 5676 5672 5668 5669 5673 5675 5676 5675 5675 5676 5676 5676 5676 5676 5676
5713 5712 5711 5708 5706 5704 5702 5699 5696 5692 5690 5688 5688 5687 5688 5688 5687 5686 5685 5684 5683 5681 5680 5679 5678 5677 5674 5674 5675 5671 5665 5661 5663 5667 5669 5670 5670 5670 5671 5671 5671 5672 5671
5710 5709 5707 5705 5703 5701 5699 5695 5691 5687 5683 5684 5684 5684 5684 5684 5683 5682 5681 5680 5679 5678 5677 5677 5676 5675 5673 5670 5671 5671 5670 5667 5662 5659 5661 5664 5665 5665 5666 5667 5667 5667 5666
5707 5705 5703 5701 5698 5697 5695 5692 5689 5685 5683 5682 5681 5680 5680 5679 5679 5679 5678 5677 5676 5675 5674 5674 5673 5672 5671 5669 5667 5667 5666 5664 5663 5658 5655 5656 5658 5660 5661 5662 5662 5662 5662
5702 5700 5698 5696 5693 5692 5691 5689 5686 5683 5680 5678 5677 5675 5675 5674 5674 5675 5674 5673 5673 5672 5671 5670 5670 5669 5668 5667 5666 5665 5664 5662 5659 5657 5653 5652 5652 5654 5656 5658 5658 5657 5657